DECAYED
Showing default

MIRATA, 43015 (Decayed)

Orbit data source: Space-Track

MIRATA, 43015 was an American payload satellite in LEO that was launched on Sat, 18 Nov 2017 UTC via a DELTA 7920-10C launch vehicle from the Air Force Western Test Range (AFWTR). Payload-class satellites include a variety of spacecraft equipped with specific instruments for various scientific and technological missions. These include communications satellites like Starlink; space stations such as the ISS; scientific satellites like the Hubble; Earth observation satellites from companies like Planet Labs, Umbra, and HawkEye 360; GPS; miniature CubeSats for education and research; and military/defense satellites.

Not visible in the next 10 days
Identifier
43015, 2017-073C
Orbit
Decayed
Country
Flag of USUS
Related business
Manufacturer
MIT
Mission
Decayed Amateur Technology
Bus & Motor
CUBESAT 3U, Unknown motor
Mass
4 kg wet, 4 kg dry
Launch date (UTC)
2017-11-18 (9 years ago)
Launch vehicle
DELTA 7920-10C
Launch site
Air Force Western Test Range (AFWTR)
Object type
Payload
Rocket body
Debris
Shape & HBR
Box + 2 Pan, 0.1 m
Radar Cross Section
0.035 m², Medium (>0.1 m² and < 1m²)

Expand to show TLE details & history
Last TLE update: 8 months ago

TLE from 8 months ago
0 MIRATA
1 43015U 17073C   25296.36297977  .10616425  26030-5  12616-2 0  9994
2 43015  97.4900 200.2312 0009154 255.2752 104.7531 16.36504951432034
Epoch: 2025-10-23T08:42Z
TLE epoch observation values (Epoch: 2025-10-23T08:42:41.452Z)
Latitude
-0°
Longitude
37.53517°
Altitude
179.893 km
Speed
7.797 km/s
True Right ascension
13h 20m 55s
True Declination
0° 00' 00"
Sunlit
Object was in daylight at epoch
Visualization orbit readout
Latitude
Unknown
Longitude
Unknown
Altitude
Unknown
Speed
Unknown
Apparent Right ascension
Unknown
Apparent Declination
Unknown
Sunlit
N/A
Visualization observer readout
Local Sidereal Time
21:38:36
Azimuth
Unknown
Elevation
Unknown
Doppler factor
Unknown
Orbital elements
Apogee altitude
177.928 km
Perigee altitude
165.937 km
Semi-major axis
6,550.07 km
Eccentricity
0.00092
Inclination
97.49°
RAAN
200.2312°
Arg. of periapsis
255.2752°
True anomaly
104.85451°
Mean anomaly
104.7531°
Eccentric anomaly
104.80381°
Mean motion
4.09425 °/min
Orbital period
87.93 mins
BSTAR
0.0012616
Loading maneuver chart data...
Computing Atmospheric mass density...
Loading historical data...
Loading historical data...
Loading historical data...
Loading historical data...
Loading historical data...
Loading historical data...
Loading historical data...

Documentation

Showing up to 5 results
|